Regional Weather Roundup
Issued by NWS

Home | Current Version | Previous Version | Text Only | Print | Product List | Glossary Off
Versions: 1 2 3 4 5 6 7 8 9 10 11 12 13 14 15 16 17 18 19 20 21 22 23 24 25 26 27 28 29 30 31 32 33 34 35 36 37 38 39 40 41 42 43 44 45 46 47 48 49 50

000
ASUS43 KBIS 300202
RWRND

NORTH DAKOTA REGIONAL WEATHER ROUNDUP
NATIONAL WEATHER SERVICE BISMARCK ND
900 PM CDT FRI APR 29 2016

NOTE: "FAIR" INDICATES FEW OR NO CLOUDS BELOW 12,000 FEET WITH NO
SIGNIFICANT WEATHER AND/OR OBSTRUCTIONS TO VISIBILITY.


NDZ001>003-009>011-017-300300-
NORTHWEST NORTH DAKOTA

CITY           SKY/WX    TMP DP  RH WIND       PRES   REMARKS
WILLISTON      CLEAR     54  27  35 E10       30.11S
MINOT          CLEAR     55  26  32 E8        30.14S
MINOT AFB      CLEAR     52  27  36 E9        30.13S
$$

NDZ018>021-031>035-040>046-300300-
SOUTHWEST NORTH DAKOTA

CITY           SKY/WX    TMP DP  RH WIND       PRES   REMARKS
BISMARCK       PTCLDY    53  35  50 E8        30.10R
DICKINSON      CLEAR     46  30  53 E8        30.06S
GARRISON         N/A     54  26  34 E12       30.12R
HETTINGER ARPT CLOUDY    50  33  52 E7        30.07R
$$

NDZ004>008-012>016-024-026-027-054-300300-
NORTHEAST NORTH DAKOTA

CITY           SKY/WX    TMP DP  RH WIND       PRES   REMARKS
GRAND FORKS    PTCLDY    55  30  38 NE15      30.16S
GRND FRKS AFB  CLEAR     54  27  35 E13       30.16F
DEVILS LAKE    PTCLDY    53  32  44 E8        30.17S
$$

NDZ022-023-025-028>030-036>039-047>053-300300-
SOUTHEAST NORTH DAKOTA

CITY           SKY/WX    TMP DP  RH WIND       PRES   REMARKS
FARGO          CLEAR     58  32  37 NE13      30.10R
JAMESTOWN      CLEAR     51  31  46 NE9       30.10S
$$





USA.gov is the U.S. government's official web portal to all federal, state and local government web resources and services.